小島彗星

70P/Kojima (2014)

English version
Home page
Updated on June 25, 2016

---------------------------------------------------------------------

・ プロフィール

・ 写真集

・ 軌道要素

Epoch 2014 Oct. 30.0 TT = JDT 2456960.5
T 2014 Oct. 20.76530 TT                                 MPCW
q   2.0067838            (2000.0)            P               Q
n   0.13984434     Peri.    1.99046     -0.51876513     -0.84901672
a   3.6759770      Node   119.27245     +0.78277420     -0.51886492
e   0.4540815      Incl.    6.60041     +0.34372560     -0.09974872
P   7.05
From 616 observations 1970 Dec. 29-2015 Jan. 2, mean residual 0".7.
     Nongravitational parameters A1 = +0.01, A2 = -0.0078.

・ 星図

・ 光度変化

        m1 = 10.5 + 5 logΔ + 15.0 log r(t - 50)

---------------------------------------------------------------------

軌道要素はM.P.E.C. 2015-A10に掲載されたものです。
星図はステラナビゲータ Ver.8 (アストロアーツ) で作成したものです。
光度グラフはComet for Windowsで作成したものです。

---------------------------------------------------------------------

Copyright(C) Seiichi Yoshida (comet@aerith.net). All rights reserved.